Weather History for Rome, OR

Change the Weather History Date:

Wednesday, April 17, 2013

  Actual Average Record
Temperature  
Mean Temperature 35 °F 46 °F  
Max Temperature 52 °F 61 °F 84 °F (1994)
Min Temperature 18 °F 31 °F 18 °F (2013)
Degree Days  
Heating Degree Days 30 19  
Month to date heating degree days 337 355  
Since 1 July heating degree days 5718 5870  
Cooling Degree Days 0 0  
Month to date cooling degree days 0 0  
Year to date cooling degree days 0 0  
Moisture  
Dew Point 8 °F    
Average Humidity 41    
Maximum Humidity 67    
Minimum Humidity 14    
Precipitation  
Precipitation 0.00 in 0.04 in 0.52 in (1955)
Month to date precipitation 0.24 0.51  
Year to date precipitation 1.48 2.90  
Sea Level Pressure  
Sea Level Pressure 30.28 in    
Wind  
Wind Speed 9 mph (NW)    
Max Wind Speed 21 mph    
Max Gust Speed 30 mph    
T = Trace of Precipitation, MM = Missing Value Source: NWS Daily Summary

Daily Weather History Graph

Daily Weather History Graph

Search for Another Location

Airport:

Trip Planner

Search our weather history database for the weather conditions in past years. The results will help you decide how hot, cold, wet, or windy it might be!

Date:

Astronomy

Apr. 17, 2013 Rise Set
Actual Time 6:06 AM PDT 7:36 PM PDT
Civil Twilight 5:36 AM PDT 8:05 PM PDT
Nautical Twilight 5:01 AM PDT 8:41 PM PDT
Astronomical Twilight 4:23 AM PDT 9:19 PM PDT
Moon 11:22 AM PDT (4/17) 1:19 AM PDT (4/17)
Length of Visible Light 14h 28m
Length of Day
13h 29m
Waxing Crescent, 43% of the Moon is Illuminated
Apr 17
Waxing Crescent
Apr 18
First Quarter
Apr 25
Full
May 2
Last Quarter
May 9
New

Hourly Weather History & Observations

Time (PDT) Temp. Windchill Dew Point Humidity Pressure Visibility Wind Dir Wind Speed Gust Speed Precip Events Conditions
12:52 AM 24.1 °F 16.0 °F 10.0 °F 55% 30.23 in - West 6.9 mph - N/A   Unknown
1:52 AM 25.0 °F 17.1 °F 10.9 °F 55% 30.22 in - NW 6.9 mph - N/A   Unknown
2:52 AM 21.9 °F 15.7 °F 10.0 °F 60% 30.24 in - South 4.6 mph - N/A   Unknown
3:52 AM 27.0 °F 20.5 °F 12.0 °F 53% 30.24 in - WNW 5.8 mph - N/A   Unknown
4:52 AM 23.0 °F 15.8 °F 10.0 °F 58% 30.26 in - WSW 5.8 mph - N/A   Unknown
5:52 AM 19.0 °F 13.9 °F 10.0 °F 68% 30.28 in - SW 3.5 mph - N/A   Unknown
6:52 AM 25.0 °F 20.7 °F 12.9 °F 60% 30.29 in - South 3.5 mph - N/A   Unknown
7:52 AM 33.1 °F 26.1 °F 12.9 °F 43% 30.29 in - West 8.1 mph - N/A   Unknown
8:52 AM 36.0 °F 26.3 °F 10.9 °F 36% 30.30 in - North 16.1 mph 25.3 mph N/A   Unknown
9:52 AM 39.0 °F 30.6 °F 10.0 °F 30% 30.31 in - NW 15.0 mph 23.0 mph N/A   Unknown
10:52 AM 41.0 °F 33.5 °F 9.0 °F 27% 30.32 in - NNW 13.8 mph 23.0 mph N/A   Unknown
11:52 AM 42.1 °F 34.2 °F 7.0 °F 24% 30.32 in - NNW 16.1 mph 21.9 mph N/A   Unknown
12:52 PM 46.0 °F 39.6 °F 7.0 °F 20% 30.31 in - NNW 15.0 mph 23.0 mph N/A   Unknown
1:52 PM 46.0 °F 43.9 °F 5.0 °F 19% 30.29 in - Variable 4.6 mph 17.3 mph N/A   Unknown
2:52 PM 51.1 °F - 5.0 °F 15% 30.27 in - NNW 13.8 mph 23.0 mph N/A   Unknown
3:52 PM 50.0 °F - 3.0 °F 15% 30.25 in - NNW 10.4 mph 21.9 mph N/A   Unknown
4:52 PM 51.1 °F - 3.9 °F 15% 30.26 in - NW 19.6 mph 26.5 mph N/A   Unknown
5:34 PM 50.0 °F - 6.8 °F 17% 30.21 in - WNW 17.3 mph 23.0 mph N/A   Unknown
5:52 PM 50.0 °F - 6.1 °F 17% 30.27 in - NW 10.4 mph - N/A   Unknown
6:52 PM 48.0 °F - 5.0 °F 17% 30.27 in - WNW 12.7 mph - N/A   Unknown
7:52 PM 42.1 °F 36.6 °F 6.1 °F 23% 30.28 in - NW 9.2 mph - N/A   Unknown
8:52 PM 39.0 °F 32.8 °F 7.0 °F 27% 30.31 in - North 9.2 mph - N/A   Unknown
9:52 PM 34.0 °F 27.2 °F 3.9 °F 28% 30.34 in - North 8.1 mph - N/A   Unknown
10:52 PM 32.0 °F - 3.9 °F 31% 30.34 in - Calm Calm - N/A   Unknown
11:52 PM 30.0 °F 23.2 °F 5.0 °F 35% 30.35 in - NNE 6.9 mph - N/A   Unknown